Flight Track Log - Related Links

Times and Time Zones

All times are in EDT time to prevent confusion due to time zone crossing. See the ASQ5678 flight status page for this flight to view local times or setup timezone preferences in your user account.

Time Position Orientation Groundspeed Altitude Reporting Facility
EDT Latitude Longitude Course Direction KTS MPH feet Rate Location/Type
Fri 03:17:43 PM 30.2697 -91.9783 227° Southwest 222 255 18,000  Level Houston Center
Fri 03:18:45 PM 30.2386 -92.0314 236° Southwest 245 282 5,600 -4,887 Descending Houston Center
Fri 03:19:00 PM 30.0304 -92.1995 227° Southwest  Level FlightAware Approximate
Fri 03:19:47 PM 30.1922 -92.0928 229° Southwest 242 278 7,900  Level Houston Center
Fri 03:20:00 PM 29.9852 -92.2774 231° Southwest  Level FlightAware Approximate
Fri 03:20:49 PM 30.1317 -92.1794 231° Southwest 278 320 9,500  Level Houston Center
Fri 03:21:00 PM 29.9314 -92.3520 221° Southwest  Level FlightAware Approximate
Fri 03:21:51 PM 30.0739 -92.2611 231° Southwest 316 364 10,900  Level Houston Center
Fri 03:22:00 PM 29.8859 -92.4343 227° Southwest  Level FlightAware Approximate
Fri 03:22:53 PM 30.0114 -92.3525 232° Southwest 349 402 11,900  Level Houston Center
Fri 03:23:55 PM 29.9808 -92.4650 253° West 369 425 13,400 1,403 Climbing Houston Center
Fri 03:24:57 PM 29.9539 -92.5806 255° West 372 428 14,800 1,355 Climbing Houston Center
Fri 03:25:59 PM 29.9272 -92.6972 255° West 375 432 16,200 1,296 Climbing Houston Center
Fri 03:27:02 PM 29.9003 -92.8122 255° West 373 429 17,500 864 Climbing Houston Center
Fri 03:28:04 PM 29.8678 -92.9531 255° West 376 433 18,000 242 Climbing Houston Center
Fri 03:29:06 PM 29.8369 -93.0817 255° West 401 461 18,000  Level Houston Center
Fri 03:30:08 PM 29.8061 -93.2142 255° West 419 482 18,000  Level Houston Center
Fri 03:31:10 PM 29.7744 -93.3483 255° West 428 493 18,000  Level Houston Center
Fri 03:32:12 PM 29.7428 -93.4814 255° West 429 494 18,000  Level Houston Center
Fri 03:33:14 PM 29.7111 -93.6119 254° West 425 489 18,000  Level Houston Center
Fri 03:34:16 PM 29.6728 -93.7700 254° West 425 489 18,000  Level Houston Center
Fri 03:35:19 PM 29.6403 -93.9017 254° West 428 493 18,000 -144 Level Houston Center
Fri 03:36:21 PM 29.6089 -94.0358 255° West 430 495 17,700 -1,132 Descending Houston Center
Fri 03:37:05 PM 29.5833 -94.1414 254° West 422 486 16,000 -2,081 Descending Houston Center
Fri 03:38:25 PM 29.5483 -94.2878 255° West 410 472 13,400 -1,422 Descending Houston Center
Fri 03:39:20 PM 29.5569 -94.4047 275° West 354 407 12,800 -836 Descending Houston Center
Fri 03:40:27 PM 29.6056 -94.5139 297° West 352 405 11,700 -1,116 Descending Houston Center
Fri 03:41:29 PM 29.6456 -94.6217 293° West 354 407 10,400 -829 Descending Houston Center
Fri 03:42:30 PM 29.6931 -94.7217 299° West 343 395 10,000 -236 Descending Houston Center
Fri 03:43:36 PM 29.7347 -94.8186 296° West 345 397 9,900 -94 Descending Houston Center
Fri 03:44:38 PM 29.7747 -94.9142 296° West 336 387 9,800 -610 Descending Houston Center
Fri 03:45:34 PM 29.8128 -95.0050 296° West 297 342 8,700 -1,125 Descending Houston Center
Fri 03:46:30 PM 29.8475 -95.0850 297° West 300 345 7,700 -1,033 Descending Houston Center
Fri 03:47:36 PM 29.8878 -95.1789 296° West 292 336 6,600 -794 Descending Houston Center
Fri 03:48:46 PM 29.8997 -95.2667 279° West 284 327 5,900 -279 Descending Houston Center
Fri 03:49:45 PM 29.8989 -95.3681 269° West 247 284 6,000 53 Climbing Houston Center
Fri 03:50:40 PM 29.8992 -95.4403 270° West 253 291 6,000 -52 Level Houston Center
Fri 03:51:41 PM 29.9042 -95.5192 274° West 249 287 5,900 -844 Descending Houston Center
Fri 03:52:55 PM 29.9686 -95.5297 352° North 245 282 4,100 -1,415 Descending Houston Center
Fri 03:53:44 PM 29.9869 -95.4828 66° East 172 198 3,000 -1,351 Descending Houston Center
Fri 03:54:46 PM 29.9928 -95.4314 83° East 134 154 1,600 -1,171 Descending Houston Center
Fri 03:55:47 PM 29.9931 -95.3881 90° East 130 150 600 -984 Descending Houston Center

Login

Don't have an account? Register now (free) for customized features, flight alerts, and more!